QPF
0.01 0.01 0.01 0.01 0.01 0.01 0.00 0.00 0.00 0.01 0.01 0.01 0.01 0.01 0.02 0.02 0.03 0.02 0.01 0.01 0.01 0.00 0.01 0.01 0.01 0.01 0.01 0.03 0.04 0.04 0.03 0.03 0.04 0.04 0.04 0.05 0.05 0.06 0.05 0.04 0.04 0.04 0.06 0.09
0.01 0.01 0.01 0.01 0.01 0.01 0.01 0.01 0.01 0.01 0.01 0.01 0.01 0.01 0.01 0.01 0.01 0.01 0.01 0.01 0.01 0.01 0.01 0.00 0.00 0.00 0.01 0.01 0.02 0.03 0.04 0.03 0.03 0.04 0.04 0.06 0.07 0.06 0.04 0.04 0.05 0.05 0.04 0.04
0.00 0.00 0.01 0.01 0.01 0.01 0.01 0.01 0.01 0.01 0.01 0.02 0.02 0.01 0.01 0.01 0.01 0.01 0.01 0.01 0.01 0.01 0.01 0.00 0.00 0.00 0.00 0.01 0.01 0.02 0.03 0.03 0.03 0.03 0.03 0.05 0.07 0.08 0.06 0.05 0.06 0.05 0.04 0.03
0.00 0.00 0.01 0.01 0.01 0.01 0.01 0.00 0.01 0.01 0.01 0.02 0.01 0.01 0.00 0.00 0.00 0.00 0.00 0.00 0.01 0.01 0.01 0.01 0.00 0.00 0.00 0.00 0.00 0.01 0.01 0.02 0.03 0.03 0.02 0.03 0.05 0.07 0.06 0.05 0.05 0.05 0.04 0.03
0.00 0.00 0.01 0.01 0.01 0.01 0.01 0.00 0.00 0.01 0.01 0.01 0.01 0.00 0.00 0.00 0.00 0.00 0.00 0.00 0.01 0.01 0.02 0.01 0.00 0.00 0.00 0.00 0.00 0.00 0.01 0.01 0.02 0.03 0.02 0.02 0.04 0.05 0.06 0.05 0.04 0.03 0.02 0.02
0.00 0.00 0.01 0.01 0.01 0.01 0.00 0.00 0.01 0.01 0.01 0.01 0.00 0.00 0.00 0.01 0.01 0.00 0.00 0.00 0.00 0.00 0.00 0.00 0.00 0.00 0.00 0.00 0.00 0.00 0.01 0.01 0.02 0.02 0.03 0.02 0.03 0.05 0.06 0.04 0.03 0.02 0.01 0.01
0.00 0.00 0.01 0.01 0.01 0.01 0.01 0.01 0.01 0.01 0.01 0.01 0.00 0.01 0.01 0.01 0.01 0.00 0.00 0.00 0.00 0.01 0.01 0.01 0.01 0.00 0.00 0.00 0.00 0.00 0.01 0.02 0.02 0.02 0.03 0.03 0.03 0.05 0.06 0.04 0.03 0.01 0.01 0.01
0.00 0.00 0.01 0.01 0.00 0.00 0.01 0.01 0.01 0.00 0.00 0.00 0.01 0.01 0.01 0.01 0.00 0.00 0.00 0.00 0.01 0.01 0.01 0.01 0.01 0.01 0.00 0.00 0.00 0.00 0.01 0.01 0.02 0.02 0.03 0.04 0.04 0.05 0.08 0.06 0.04 0.02 0.01 0.01
0.01 0.00 0.00 0.00 0.00 0.00 0.01 0.01 0.01 0.00 0.00 0.00 0.00 0.00 0.00 0.00 0.00 0.00 0.00 0.00 0.01 0.01 0.01 0.01 0.01 0.01 0.01 0.01 0.01 0.00 0.00 0.01 0.01 0.01 0.02 0.03 0.04 0.04 0.07 0.09 0.05 0.02 0.01 0.01
0.01 0.01 0.00 0.00 0.00 0.00 0.00 0.00 0.01 0.00 0.00 0.00 0.00 0.00 0.00 0.00 0.00 0.00 0.00 0.00 0.00 0.01 0.01 0.01 0.01 0.01 0.01 0.01 0.01 0.01 0.01 0.01 0.01 0.01 0.02 0.03 0.04 0.04 0.05 0.09 0.07 0.04 0.02 0.03
0.01 0.01 0.00 0.00 0.01 0.01 0.00 0.00 0.01 0.00 0.00 0.00 0.00 0.00 0.00 0.00 0.00 0.00 0.00 0.00 0.01 0.01 0.01 0.01 0.01 0.01 0.01 0.01 0.01 0.01 0.01 0.02 0.02 0.01 0.02 0.03 0.04 0.05 0.05 0.05 0.07 0.05 0.03 0.03
0.01 0.01 0.01 0.00 0.01 0.01 0.02 0.01 0.01 0.00 0.00 0.00 0.00 0.01 0.01 0.00 0.00 0.00 0.01 0.01 0.01 0.01 0.01 0.01 0.02 0.01 0.01 0.01 0.01 0.01 0.01 0.02 0.03 0.02 0.01 0.02 0.03 0.05 0.05 0.05 0.05 0.04 0.03 0.02
0.01 0.01 0.01 0.00 0.01 0.01 0.02 0.03 0.01 0.00 0.00 0.00 0.01 0.01 0.01 0.01 0.00 0.01 0.01 0.01 0.02 0.02 0.02 0.02 0.01 0.01 0.00 0.01 0.01 0.02 0.03 0.03 0.04 0.02 0.01 0.01 0.02 0.04 0.06 0.05 0.04 0.04 0.03 0.02
0.01 0.01 0.01 0.02 0.02 0.02 0.02 0.03 0.02 0.01 0.00 0.00 0.01 0.01 0.01 0.01 0.01 0.01 0.02 0.02 0.03 0.02 0.02 0.02 0.01 0.01 0.01 0.01 0.01 0.02 0.03 0.04 0.05 0.05 0.03 0.03 0.03 0.03 0.07 0.06 0.04 0.04 0.03 0.02
0.00 0.01 0.01 0.01 0.01 0.02 0.03 0.03 0.02 0.01 0.00 0.00 0.00 0.00 0.00 0.00 0.01 0.01 0.01 0.02 0.02 0.02 0.01 0.02 0.02 0.01 0.01 0.01 0.01 0.02 0.02 0.02 0.03 0.04 0.04 0.04 0.05 0.05 0.07 0.07 0.04 0.03 0.03 0.02
0.00 0.00 0.00 0.00 0.01 0.01 0.02 0.03 0.03 0.02 0.01 0.00 0.00 0.00 0.00 0.00 0.00 0.00 0.00 0.01 0.01 0.01 0.01 0.01 0.01 0.01 0.01 0.01 0.02 0.01 0.01 0.02 0.03 0.04 0.03 0.01 0.03 0.04 0.06 0.09 0.07 0.05 0.04 0.03
0.00 0.00 0.00 0.00 0.01 0.01 0.02 0.03 0.04 0.04 0.03 0.01 0.00 0.00 0.00 0.00 0.00 0.00 0.00 0.00 0.00 0.00 0.00 0.01 0.01 0.01 0.01 0.01 0.01 0.01 0.01 0.01 0.02 0.03 0.02 0.02 0.02 0.01 0.02 0.05 0.06 0.06 0.06 0.04
0.00 0.00 0.01 0.00 0.00 0.01 0.02 0.03 0.04 0.04 0.04 0.03 0.02 0.01 0.00 0.00 0.00 0.00 0.00 0.00 0.00 0.00 0.00 0.00 0.00 0.01 0.01 0.01 0.01 0.01 0.01 0.01 0.01 0.02 0.02 0.02 0.02 0.02 0.01 0.03 0.04 0.04 0.04 0.03
0.00 0.00 0.00 0.00 0.01 0.01 0.01 0.02 0.03 0.03 0.03 0.03 0.03 0.03 0.02 0.01 0.01 0.01 0.00 0.00 0.00 0.00 0.00 0.00 0.00 0.00 0.01 0.01 0.01 0.01 0.01 0.01 0.01 0.01 0.01 0.01 0.02 0.01 0.01 0.02 0.02 0.04 0.04 0.03
0.00 0.00 0.00 0.01 0.01 0.01 0.01 0.01 0.01 0.01 0.02 0.02 0.02 0.03 0.03 0.02 0.02 0.01 0.00 0.00 0.00 0.00 0.00 0.00 0.00 0.00 0.00 0.01 0.01 0.01 0.01 0.01 0.01 0.01 0.01 0.01 0.01 0.01 0.01 0.02 0.02 0.04 0.04 0.04
0.00 0.00 0.00 0.01 0.01 0.01 0.00 0.00 0.00 0.01 0.01 0.01 0.01 0.01 0.02 0.03 0.03 0.02 0.01 0.01 0.00 0.00 0.00 0.00 0.00 0.00 0.00 0.01 0.01 0.00 0.01 0.01 0.01 0.01 0.01 0.01 0.01 0.02 0.02 0.02 0.03 0.04 0.04 0.03
0.00 0.00 0.00 0.00 0.00 0.00 0.00 0.00 0.00 0.01 0.01 0.01 0.00 0.00 0.01 0.01 0.01 0.01 0.01 0.01 0.01 0.00 0.00 0.00 0.00 0.00 0.00 0.00 0.00 0.00 0.01 0.01 0.01 0.01 0.01 0.01 0.01 0.02 0.03 0.03 0.03 0.03 0.03 0.02
0.00 0.00 0.00 0.00 0.00 0.00 0.00 0.00 0.00 0.00 0.00 0.00 0.00 0.00 0.00 0.00 0.00 0.00 0.00 0.00 0.01 0.00 0.00 0.00 0.00 0.00 0.00 0.00 0.00 0.00 0.01 0.01 0.01 0.02 0.01 0.01 0.01 0.02 0.03 0.03 0.03 0.03 0.03 0.03
0.00 0.00 0.00 0.00 0.00 0.00 0.00 0.00 0.00 0.00 0.00 0.00 0.00 0.00 0.00 0.00 0.00 0.00 0.00 0.00 0.00 0.00 0.00 0.00 0.00 0.00 0.00 0.00 0.00 0.00 0.01 0.01 0.01 0.02 0.02 0.02 0.01 0.02 0.02 0.03 0.03 0.04 0.04 0.02
0.00 0.00 0.00 0.00 0.00 0.00 0.00 0.00 0.00 0.00 0.00 0.00 0.00 0.00 0.00 0.00 0.00 0.00 0.00 0.00 0.00 0.00 0.00 0.00 0.00 0.00 0.00 0.00 0.00 0.00 0.01 0.01 0.01 0.01 0.01 0.01 0.01 0.02 0.02 0.02 0.03 0.04 0.04 0.03
0.00 0.00 0.00 0.00 0.00 0.00 0.00 0.00 0.00 0.00 0.00 0.00 0.00 0.00 0.00 0.00 0.00 0.00 0.00 0.00 0.00 0.00 0.00 0.00 0.00 0.00 0.00 0.00 0.00 0.00 0.00 0.00 0.00 0.00 0.01 0.01 0.01 0.02 0.02 0.02 0.03 0.03 0.04 0.05
MSLP
1013.05 1013.89 1014.59 1015.14 1015.55 1015.83 1016.03 1016.18 1016.30 1016.41 1016.51 1016.58 1016.61 1016.58 1016.51 1016.39 1016.26 1016.13 1016.03 1015.98 1016.00 1016.07 1016.20 1016.34 1016.48 1016.60 1016.69 1016.75 1016.78 1016.80 1016.83 1016.90 1017.02 1017.18 1017.38 1017.60 1017.79 1017.95 1018.03 1018.03 1017.94 1017.77 1017.55 1017.31
1013.75 1014.43 1014.97 1015.37 1015.66 1015.89 1016.10 1016.31 1016.53 1016.76 1016.95 1017.07 1017.09 1017.00 1016.81 1016.54 1016.25 1015.98 1015.79 1015.70 1015.73 1015.86 1016.07 1016.31 1016.53 1016.70 1016.80 1016.85 1016.84 1016.83 1016.85 1016.92 1017.06 1017.27 1017.54 1017.83 1018.10 1018.31 1018.43 1018.46 1018.39 1018.24 1018.06 1017.86
1014.26 1014.77 1015.13 1015.40 1015.62 1015.84 1016.11 1016.44 1016.81 1017.17 1017.47 1017.65 1017.66 1017.48 1017.14 1016.69 1016.20 1015.76 1015.43 1015.26 1015.26 1015.42 1015.69 1016.00 1016.30 1016.53 1016.68 1016.74 1016.75 1016.74 1016.76 1016.85 1017.04 1017.31 1017.65 1018.00 1018.34 1018.60 1018.77 1018.83 1018.79 1018.68 1018.54 1018.39
1014.62 1014.94 1015.15 1015.31 1015.50 1015.76 1016.14 1016.63 1017.18 1017.71 1018.13 1018.37 1018.35 1018.07 1017.55 1016.89 1016.17 1015.51 1015.00 1014.70 1014.64 1014.79 1015.09 1015.47 1015.84 1016.14 1016.35 1016.46 1016.50 1016.53 1016.59 1016.74 1016.98 1017.31 1017.71 1018.13 1018.52 1018.83 1019.04 1019.13 1019.13 1019.06 1018.96 1018.88
1014.89 1015.03 1015.11 1015.19 1015.38 1015.72 1016.25 1016.92 1017.67 1018.38 1018.92 1019.20 1019.15 1018.76 1018.07 1017.17 1016.20 1015.30 1014.59 1014.14 1013.98 1014.08 1014.38 1014.80 1015.23 1015.60 1015.88 1016.06 1016.17 1016.25 1016.38 1016.58 1016.88 1017.28 1017.74 1018.21 1018.64 1018.99 1019.23 1019.35 1019.39 1019.36 1019.32 1019.29
1015.15 1015.12 1015.08 1015.13 1015.34 1015.79 1016.46 1017.33 1018.27 1019.14 1019.80 1020.12 1020.03 1019.52 1018.65 1017.53 1016.32 1015.18 1014.26 1013.64 1013.36 1013.39 1013.67 1014.09 1014.56 1015.00 1015.35 1015.60 1015.78 1015.94 1016.14 1016.40 1016.76 1017.21 1017.71 1018.22 1018.68 1019.06 1019.32 1019.48 1019.55 1019.57 1019.57 1019.60
1015.42 1015.26 1015.14 1015.16 1015.42 1015.97 1016.79 1017.82 1018.92 1019.93 1020.67 1021.01 1020.88 1020.27 1019.24 1017.92 1016.50 1015.16 1014.05 1013.27 1012.86 1012.81 1013.04 1013.46 1013.95 1014.43 1014.83 1015.15 1015.40 1015.63 1015.88 1016.20 1016.60 1017.08 1017.61 1018.14 1018.62 1019.02 1019.30 1019.49 1019.60 1019.66 1019.72 1019.80
1015.69 1015.45 1015.28 1015.31 1015.62 1016.25 1017.19 1018.34 1019.55 1020.63 1021.42 1021.76 1021.58 1020.88 1019.73 1018.27 1016.70 1015.21 1013.95 1013.04 1012.52 1012.39 1012.57 1012.96 1013.45 1013.94 1014.37 1014.74 1015.03 1015.31 1015.60 1015.95 1016.38 1016.87 1017.41 1017.94 1018.44 1018.85 1019.16 1019.39 1019.54 1019.66 1019.76 1019.90
1015.95 1015.66 1015.48 1015.53 1015.89 1016.59 1017.59 1018.80 1020.04 1021.15 1021.93 1022.24 1022.01 1021.25 1020.03 1018.49 1016.84 1015.26 1013.92 1012.93 1012.34 1012.14 1012.26 1012.61 1013.06 1013.54 1013.98 1014.36 1014.68 1014.97 1015.28 1015.64 1016.07 1016.56 1017.09 1017.63 1018.13 1018.56 1018.91 1019.18 1019.39 1019.57 1019.74 1019.92
1016.11 1015.85 1015.70 1015.79 1016.19 1016.91 1017.92 1019.12 1020.33 1021.38 1022.10 1022.36 1022.08 1021.28 1020.04 1018.49 1016.83 1015.25 1013.90 1012.89 1012.26 1012.02 1012.08 1012.38 1012.79 1013.23 1013.64 1013.99 1014.30 1014.59 1014.89 1015.25 1015.66 1016.14 1016.67 1017.20 1017.71 1018.17 1018.57 1018.90 1019.18 1019.43 1019.66 1019.91
1016.17 1015.97 1015.90 1016.05 1016.47 1017.18 1018.15 1019.26 1020.36 1021.29 1021.90 1022.07 1021.74 1020.92 1019.71 1018.22 1016.64 1015.13 1013.84 1012.86 1012.25 1011.97 1012.00 1012.23 1012.57 1012.94 1013.30 1013.61 1013.89 1014.15 1014.43 1014.76 1015.16 1015.62 1016.14 1016.67 1017.21 1017.71 1018.16 1018.57 1018.93 1019.26 1019.58 1019.89
1016.11 1016.03 1016.06 1016.27 1016.71 1017.38 1018.24 1019.20 1020.13 1020.89 1021.34 1021.40 1021.02 1020.22 1019.07 1017.69 1016.25 1014.88 1013.71 1012.82 1012.24 1011.97 1011.95 1012.11 1012.37 1012.66 1012.94 1013.19 1013.42 1013.64 1013.89 1014.20 1014.58 1015.03 1015.54 1016.09 1016.66 1017.21 1017.73 1018.22 1018.67 1019.10 1019.49 1019.87
1015.99 1016.07 1016.21 1016.48 1016.91 1017.51 1018.23 1018.99 1019.70 1020.24 1020.51 1020.44 1020.01 1019.24 1018.19 1016.97 1015.71 1014.53 1013.52 1012.75 1012.24 1011.98 1011.92 1012.01 1012.18 1012.38 1012.57 1012.74 1012.91 1013.09 1013.31 1013.59 1013.96 1014.40 1014.92 1015.49 1016.09 1016.69 1017.29 1017.87 1018.42 1018.93 1019.41 1019.85
1015.91 1016.13 1016.39 1016.71 1017.11 1017.60 1018.14 1018.68 1019.13 1019.43 1019.50 1019.30 1018.82 1018.09 1017.17 1016.14 1015.10 1014.13 1013.31 1012.68 1012.25 1012.01 1011.92 1011.94 1012.01 1012.11 1012.21 1012.30 1012.40 1012.53 1012.72 1012.99 1013.34 1013.78 1014.30 1014.89 1015.52 1016.18 1016.85 1017.51 1018.15 1018.75 1019.31 1019.82
1015.96 1016.30 1016.64 1016.98 1017.33 1017.68 1018.02 1018.31 1018.50 1018.55 1018.42 1018.09 1017.58 1016.91 1016.13 1015.30 1014.48 1013.75 1013.13 1012.65 1012.31 1012.09 1011.98 1011.93 1011.91 1011.90 1011.90 1011.91 1011.95 1012.03 1012.18 1012.43 1012.76 1013.20 1013.72 1014.32 1014.98 1015.69 1016.41 1017.14 1017.85 1018.54 1019.18 1019.75
1016.18 1016.61 1016.99 1017.30 1017.57 1017.77 1017.89 1017.93 1017.85 1017.66 1017.35 1016.92 1016.39 1015.79 1015.16 1014.53 1013.95 1013.44 1013.02 1012.69 1012.44 1012.26 1012.12 1012.01 1011.90 1011.79 1011.70 1011.62 1011.59 1011.62 1011.74 1011.95 1012.27 1012.69 1013.20 1013.80 1014.47 1015.20 1015.97 1016.75 1017.52 1018.27 1018.97 1019.61
1016.59 1017.04 1017.40 1017.65 1017.80 1017.83 1017.74 1017.53 1017.22 1016.82 1016.36 1015.84 1015.32 1014.80 1014.31 1013.88 1013.52 1013.23 1013.00 1012.82 1012.66 1012.52 1012.36 1012.20 1012.01 1011.82 1011.64 1011.48 1011.38 1011.36 1011.43 1011.60 1011.89 1012.28 1012.77 1013.35 1014.02 1014.75 1015.53 1016.34 1017.16 1017.96 1018.72 1019.41
1017.10 1017.51 1017.80 1017.96 1017.96 1017.81 1017.52 1017.11 1016.60 1016.04 1015.46 1014.90 1014.39 1013.96 1013.62 1013.38 1013.22 1013.13 1013.07 1013.02 1012.96 1012.85 1012.69 1012.49 1012.24 1011.98 1011.72 1011.50 1011.34 1011.26 1011.28 1011.40 1011.64 1011.99 1012.44 1013.00 1013.64 1014.36 1015.14 1015.96 1016.80 1017.63 1018.43 1019.16
1017.59 1017.91 1018.09 1018.11 1017.97 1017.66 1017.20 1016.62 1015.97 1015.30 1014.65 1014.08 1013.62 1013.28 1013.08 1013.00 1013.02 1013.10 1013.19 1013.26 1013.28 1013.22 1013.07 1012.85 1012.57 1012.25 1011.94 1011.66 1011.45 1011.31 1011.28 1011.36 1011.55 1011.85 1012.26 1012.77 1013.38 1014.07 1014.84 1015.66 1016.50 1017.35 1018.16 1018.92
1017.92 1018.11 1018.16 1018.05 1017.77 1017.32 1016.74 1016.06 1015.32 1014.60 1013.94 1013.39 1012.99 1012.75 1012.67 1012.73 1012.89 1013.10 1013.31 1013.48 1013.57 1013.56 1013.44 1013.22 1012.93 1012.59 1012.25 1011.95 1011.69 1011.52 1011.45 1011.48 1011.63 1011.88 1012.24 1012.71 1013.28 1013.95 1014.69 1015.49 1016.33 1017.17 1017.99 1018.75
1017.99 1018.03 1017.94 1017.71 1017.32 1016.79 1016.14 1015.41 1014.66 1013.94 1013.31 1012.82 1012.49 1012.34 1012.36 1012.53 1012.79 1013.10 1013.40 1013.64 1013.79 1013.83 1013.74 1013.55 1013.28 1012.95 1012.62 1012.30 1012.04 1011.85 1011.76 1011.76 1011.87 1012.09 1012.42 1012.85 1013.39 1014.03 1014.74 1015.52 1016.33 1017.15 1017.95 1018.70
1017.75 1017.65 1017.44 1017.11 1016.65 1016.08 1015.42 1014.71 1014.01 1013.35 1012.79 1012.38 1012.13 1012.06 1012.15 1012.38 1012.70 1013.07 1013.42 1013.71 1013.90 1013.99 1013.95 1013.81 1013.58 1013.30 1013.00 1012.71 1012.47 1012.29 1012.19 1012.19 1012.29 1012.49 1012.80 1013.21 1013.72 1014.33 1015.02 1015.77 1016.55 1017.33 1018.08 1018.79
1017.23 1017.01 1016.70 1016.30 1015.82 1015.26 1014.65 1014.02 1013.41 1012.85 1012.39 1012.07 1011.90 1011.89 1012.03 1012.29 1012.63 1013.01 1013.38 1013.69 1013.92 1014.04 1014.06 1013.98 1013.81 1013.60 1013.36 1013.14 1012.94 1012.80 1012.73 1012.74 1012.85 1013.05 1013.36 1013.76 1014.26 1014.85 1015.51 1016.22 1016.95 1017.68 1018.38 1019.02
1016.54 1016.21 1015.84 1015.41 1014.94 1014.44 1013.91 1013.39 1012.90 1012.47 1012.13 1011.91 1011.81 1011.85 1012.01 1012.27 1012.60 1012.96 1013.31 1013.62 1013.86 1014.02 1014.09 1014.07 1013.99 1013.86 1013.71 1013.57 1013.44 1013.36 1013.34 1013.39 1013.53 1013.75 1014.06 1014.47 1014.96 1015.53 1016.15 1016.82 1017.50 1018.17 1018.80 1019.36
1015.79 1015.39 1014.97 1014.54 1014.11 1013.68 1013.26 1012.87 1012.52 1012.23 1012.00 1011.87 1011.84 1011.91 1012.07 1012.31 1012.60 1012.93 1013.25 1013.54 1013.79 1013.97 1014.09 1014.14 1014.14 1014.10 1014.05 1013.99 1013.95 1013.94 1013.99 1014.09 1014.26 1014.51 1014.84 1015.25 1015.74 1016.28 1016.88 1017.50 1018.12 1018.71 1019.27 1019.75
1015.12 1014.67 1014.22 1013.80 1013.41 1013.06 1012.75 1012.48 1012.26 1012.09 1011.97 1011.93 1011.95 1012.04 1012.20 1012.41 1012.67 1012.94 1013.23 1013.50 1013.74 1013.94 1014.10 1014.21 1014.29 1014.34 1014.37 1014.41 1014.45 1014.52 1014.63 1014.78 1015.00 1015.28 1015.63 1016.04 1016.51 1017.03 1017.59 1018.16 1018.72 1019.24 1019.72 1020.13
Thickness
5718 5705 5696 5700 5703 5703 5698 5692 5688 5693 5702 5696 5689 5688 5693 5698 5699 5697 5697 5698 5698 5701 5706 5707 5708 5709 5709 5708 5707 5707 5706 5705 5704 5702 5700 5699 5697 5697 5697 5697 5696 5696 5695 5694
5702 5697 5705 5708 5706 5702 5696 5689 5686 5691 5699 5693 5687 5686 5692 5694 5695 5696 5696 5695 5697 5698 5701 5703 5703 5704 5703 5703 5703 5702 5702 5701 5700 5699 5697 5696 5694 5693 5692 5692 5692 5691 5691 5690
5696 5701 5710 5705 5699 5695 5691 5687 5686 5686 5690 5689 5685 5679 5684 5691 5694 5695 5696 5696 5696 5696 5696 5697 5698 5698 5698 5698 5698 5699 5698 5697 5696 5695 5693 5692 5690 5688 5687 5686 5686 5686 5686 5685
5698 5705 5705 5699 5695 5693 5683 5695 5692 5687 5676 5668 5676 5659 5675 5681 5684 5689 5690 5690 5691 5693 5693 5693 5693 5693 5693 5694 5695 5695 5694 5693 5692 5691 5689 5686 5683 5681 5681 5681 5681 5681 5681 5680
5694 5700 5698 5693 5695 5695 5690 5695 5689 5683 5674 5664 5665 5658 5665 5675 5677 5683 5687 5688 5689 5690 5689 5689 5689 5689 5690 5690 5690 5690 5689 5688 5687 5686 5685 5682 5679 5678 5677 5676 5676 5676 5676 5675
5695 5702 5701 5698 5699 5698 5692 5684 5676 5666 5659 5651 5659 5653 5656 5667 5676 5682 5686 5687 5687 5687 5686 5685 5685 5685 5685 5685 5684 5684 5683 5682 5682 5681 5680 5678 5675 5673 5672 5671 5670 5670 5670 5670
5683 5691 5698 5700 5690 5688 5683 5664 5648 5645 5638 5643 5656 5650 5656 5676 5681 5683 5684 5684 5684 5683 5682 5680 5680 5679 5679 5679 5678 5678 5677 5676 5676 5675 5674 5673 5671 5669 5668 5666 5665 5664 5664 5663
5665 5666 5686 5692 5687 5677 5673 5663 5643 5634 5632 5637 5649 5646 5662 5679 5682 5684 5683 5682 5680 5679 5678 5676 5676 5674 5674 5673 5673 5672 5672 5671 5670 5669 5668 5667 5666 5664 5663 5662 5661 5660 5659 5659
5660 5662 5683 5689 5690 5681 5667 5658 5658 5641 5637 5631 5638 5648 5664 5675 5676 5678 5678 5677 5675 5674 5673 5672 5671 5670 5669 5668 5667 5667 5666 5665 5664 5663 5662 5660 5659 5658 5658 5657 5656 5655 5655 5654
5669 5661 5674 5680 5683 5678 5672 5659 5644 5636 5625 5621 5630 5638 5646 5662 5665 5669 5669 5669 5669 5669 5668 5667 5665 5664 5664 5663 5662 5661 5660 5659 5658 5657 5656 5655 5653 5653 5652 5651 5650 5649 5649 5648
5670 5657 5660 5667 5665 5662 5660 5654 5644 5632 5629 5619 5617 5632 5658 5660 5662 5661 5663 5664 5663 5663 5662 5661 5660 5659 5658 5657 5656 5655 5654 5652 5651 5650 5649 5648 5647 5647 5646 5644 5644 5644 5643 5642
5661 5648 5643 5653 5664 5666 5662 5654 5641 5632 5626 5620 5615 5628 5662 5660 5660 5659 5658 5659 5659 5659 5657 5656 5655 5654 5652 5651 5650 5649 5648 5646 5645 5644 5643 5641 5640 5640 5639 5638 5637 5637 5636 5635
5657 5644 5633 5637 5645 5653 5651 5649 5642 5633 5623 5612 5611 5629 5656 5654 5655 5656 5654 5653 5652 5652 5650 5649 5648 5647 5646 5645 5644 5643 5642 5641 5640 5638 5636 5635 5634 5633 5632 5631 5630 5629 5629 5628
5657 5639 5632 5629 5633 5640 5642 5644 5639 5631 5619 5613 5617 5630 5646 5648 5648 5650 5650 5648 5647 5645 5644 5642 5641 5640 5640 5639 5638 5637 5635 5634 5633 5631 5630 5628 5627 5626 5625 5624 5623 5622 5621 5620
5651 5636 5637 5636 5639 5638 5638 5640 5636 5631 5628 5622 5628 5630 5641 5645 5645 5646 5645 5643 5642 5641 5639 5637 5635 5633 5632 5632 5631 5630 5629 5627 5626 5624 5623 5622 5620 5619 5618 5617 5615 5614 5613 5612
5639 5634 5633 5633 5637 5634 5632 5637 5636 5632 5631 5627 5629 5631 5644 5644 5642 5640 5639 5637 5636 5635 5634 5632 5630 5628 5627 5626 5625 5624 5622 5620 5619 5616 5615 5614 5613 5612 5610 5609 5608 5606 5605 5603
5629 5626 5621 5617 5625 5628 5621 5634 5635 5631 5630 5629 5625 5633 5638 5636 5636 5635 5633 5632 5630 5629 5628 5626 5625 5623 5621 5620 5619 5617 5616 5613 5611 5608 5607 5605 5604 5603 5602 5601 5599 5598 5596 5595
5624 5618 5609 5607 5614 5609 5627 5639 5638 5633 5631 5630 5630 5632 5632 5633 5632 5631 5630 5627 5625 5624 5622 5620 5618 5617 5615 5614 5612 5610 5608 5605 5603 5600 5598 5597 5595 5594 5593 5591 5590 5589 5588 5586
5623 5615 5603 5596 5599 5606 5623 5633 5631 5626 5625 5627 5625 5625 5625 5625 5624 5622 5624 5622 5620 5618 5616 5614 5612 5610 5607 5605 5603 5601 5599 5596 5594 5592 5590 5589 5587 5585 5584 5583 5582 5580 5578 5576
5613 5610 5600 5590 5595 5597 5617 5631 5632 5626 5615 5624 5620 5617 5615 5614 5606 5611 5618 5615 5613 5611 5608 5606 5603 5601 5598 5596 5594 5591 5589 5587 5585 5584 5582 5580 5578 5576 5575 5574 5572 5571 5569 5567
5601 5595 5591 5586 5587 5596 5613 5622 5624 5606 5606 5618 5615 5612 5608 5605 5605 5608 5609 5607 5605 5602 5599 5597 5594 5591 5589 5586 5584 5581 5579 5577 5577 5575 5573 5571 5569 5568 5566 5565 5563 5561 5559 5557
5594 5587 5583 5579 5580 5591 5612 5611 5605 5604 5610 5610 5608 5606 5603 5601 5601 5601 5599 5597 5595 5592 5590 5587 5584 5581 5579 5576 5574 5572 5570 5569 5568 5565 5563 5561 5559 5558 5557 5554 5552 5550 5549 5546
5588 5590 5587 5587 5593 5601 5604 5604 5606 5604 5602 5602 5600 5599 5596 5593 5591 5591 5589 5587 5585 5583 5580 5577 5574 5571 5569 5567 5565 5562 5561 5559 5557 5554 5552 5550 5549 5547 5545 5543 5541 5539 5537 5535
5584 5585 5582 5582 5589 5594 5596 5596 5597 5596 5596 5595 5594 5592 5589 5586 5583 5581 5579 5577 5575 5573 5570 5567 5564 5561 5559 5557 5555 5553 5551 5549 5547 5544 5541 5539 5537 5535 5533 5531 5529 5528 5526 5524
5578 5574 5573 5575 5582 5585 5590 5589 5589 5589 5588 5586 5585 5584 5581 5578 5575 5573 5571 5568 5566 5564 5561 5559 5555 5552 5549 5548 5546 5544 5541 5539 5536 5533 5530 5528 5526 5524 5521 5520 5517 5516 5515 5514
5568 5568 5567 5572 5578 5574 5580 5584 5583 5580 5579 5578 5576 5575 5573 5571 5568 5565 5562 5559 5557 5554 5551 5549 5546 5543 5540 5538 5535 5534 5531 5529 5526 5523 5520 5518 5515 5513 5510 5508 5507 5506 5505 5504